RH
14 17 17 15 17 16 15 16 18 20 19 19 17 16 15 13 12 10 12 15 14 15 13 11 11 10 10 10 10 11 12 12 12 13 15 15 15 14 15 15 15 15 15 15 16 21 26 27 33 34 38 47 51 54 58 59 58 56 56 60 64 61 56 55 47 37 33 29 29 32 30 29 32 33 40 54 60 58 63 68 69 71 73 73 75 76
16 19 18 18 22 20 19 20 21 21 21 19 17 16 14 13 12 11 15 17 16 18 15 11 13 12 11 11 10 10 12 14 14 14 14 14 14 15 15 14 14 14 13 13 15 20 25 28 34 35 37 45 50 52 57 58 58 59 58 60 67 64 55 51 48 45 40 35 35 33 33 32 32 34 35 44 58 62 65 71 72 72 73 73 74 75
16 17 18 21 23 21 21 20 20 21 21 20 16 15 15 12 12 14 20 19 15 19 17 11 12 13 13 13 11 11 12 14 14 14 14 13 14 14 15 15 14 15 14 14 15 20 25 29 34 36 37 43 49 51 55 55 56 60 59 59 66 64 56 52 53 52 44 43 46 44 45 40 34 41 49 55 63 64 64 65 65 65 68 70 70 71
18 20 20 21 19 19 22 21 22 23 22 20 17 16 15 12 12 14 19 22 18 20 19 14 15 16 17 16 14 12 12 13 14 15 16 15 14 15 15 15 15 16 16 16 19 24 29 31 34 36 38 43 49 48 51 54 53 58 59 57 64 63 58 54 51 50 49 54 60 58 60 58 51 52 56 58 60 59 59 59 58 60 63 66 67 68
18 23 20 19 19 19 23 23 24 23 21 20 19 18 15 14 15 14 19 25 23 22 20 17 17 17 16 16 14 12 12 14 14 15 16 16 16 16 16 15 15 17 18 19 25 31 32 32 33 36 38 42 48 46 48 53 53 56 57 57 64 64 60 56 50 53 60 65 70 70 66 63 59 52 45 42 45 50 54 56 58 59 61 63 63 66
17 26 20 17 20 19 22 24 23 22 20 18 18 19 17 15 16 16 19 23 20 20 20 18 20 17 13 13 13 11 12 13 13 13 14 16 17 16 15 14 16 19 22 23 27 32 32 31 32 35 36 39 45 45 49 54 55 57 56 57 65 64 59 58 54 57 63 61 57 53 49 44 42 40 41 42 45 50 53 56 60 60 61 63 63 64
17 25 19 18 21 19 21 22 19 20 20 18 17 17 18 16 17 18 20 20 17 19 23 23 22 18 13 14 13 12 13 14 14 14 13 14 15 13 12 14 16 18 23 25 26 28 30 30 29 32 35 37 42 46 50 56 58 58 55 57 66 63 58 60 56 52 56 54 48 45 43 40 38 39 47 53 55 55 55 58 63 63 61 60 61 63
17 22 19 20 21 19 21 19 17 18 18 21 22 18 17 16 17 20 20 20 17 18 25 27 22 18 15 13 11 12 15 15 15 14 13 12 11 11 12 14 15 16 21 27 27 26 28 28 28 31 34 35 39 44 48 55 61 61 55 59 67 62 56 60 56 49 52 52 50 51 50 46 44 48 55 58 57 56 56 59 62 63 62 60 59 59
21 23 21 21 20 17 17 15 16 19 18 21 24 19 16 16 17 19 20 20 18 17 24 23 20 23 19 12 11 13 15 15 15 15 14 12 11 13 14 14 14 15 20 26 27 26 26 27 29 30 32 33 35 40 48 59 66 63 58 62 68 61 56 61 58 51 52 53 51 52 50 47 48 51 54 53 52 54 56 59 61 61 63 62 62 61
20 19 17 17 17 15 13 11 14 19 19 19 21 18 16 17 17 19 20 19 19 21 25 21 20 26 22 12 11 15 16 14 13 14 15 14 13 13 14 14 14 14 18 22 23 25 25 27 28 28 30 31 32 41 55 65 68 65 62 66 70 62 57 63 61 54 56 56 52 51 52 52 52 52 51 51 55 58 56 57 59 59 58 57 59 61
15 17 15 13 14 12 11 14 16 17 17 19 22 17 16 17 18 20 19 18 22 24 24 20 18 24 24 13 9 14 17 14 12 13 14 14 13 14 14 14 14 13 17 19 19 22 24 26 27 28 29 30 37 52 62 66 68 67 67 69 69 63 60 63 62 57 60 60 54 54 59 59 59 60 58 56 59 60 57 57 57 56 55 53 54 59
12 15 14 10 10 9 11 17 17 14 13 18 20 17 18 20 20 23 22 23 29 28 22 16 15 22 26 16 8 10 14 12 11 11 12 14 14 14 14 13 13 13 14 16 17 21 25 27 29 30 31 36 50 64 66 66 69 69 69 70 68 64 61 63 63 61 61 61 58 59 63 63 64 65 63 60 60 61 61 61 58 54 52 51 53 56
12 13 11 10 9 8 12 14 14 13 14 16 17 18 22 22 22 28 28 28 30 28 20 15 17 25 25 16 10 11 12 12 11 10 11 14 14 14 13 13 13 12 13 14 16 20 26 33 37 37 39 46 60 68 65 65 69 69 69 70 67 64 63 64 65 63 62 61 61 62 63 63 66 67 65 62 61 63 61 58 58 56 52 49 49 53
15 13 11 12 11 10 11 13 15 17 16 16 16 18 23 23 26 30 26 23 23 22 19 16 20 27 23 15 11 10 11 11 10 10 11 13 14 14 12 11 12 12 12 12 13 17 24 33 41 42 43 48 57 63 63 64 68 69 69 69 67 63 64 66 64 63 62 63 63 63 62 61 63 65 65 61 59 62 60 54 56 58 55 53 51 53
18 16 12 13 14 13 12 10 12 14 15 17 14 15 19 21 25 27 21 18 20 22 24 24 28 29 22 16 12 9 9 10 10 10 10 12 12 12 12 10 11 11 11 12 13 16 20 27 33 36 37 41 47 54 59 62 66 67 66 68 67 62 64 67 64 63 62 62 65 65 62 61 59 60 61 58 55 58 60 57 58 59 58 57 56 57
19 17 11 11 13 13 13 10 9 11 13 14 13 15 19 16 18 22 22 22 24 28 27 25 28 25 18 14 10 10 10 8 10 10 10 12 11 12 12 11 11 12 12 12 14 15 18 22 26 29 32 35 39 44 52 58 62 66 65 66 66 62 64 67 63 62 62 62 66 66 63 63 60 57 56 54 54 57 60 62 63 63 63 62 62 62
20 17 10 10 13 11 11 10 9 11 14 13 14 18 18 13 14 21 24 23 27 34 28 21 24 20 16 16 11 10 12 10 10 10 10 12 12 12 14 13 12 12 12 12 13 14 16 20 24 27 29 33 36 37 45 55 62 66 65 65 65 60 62 66 63 61 62 63 66 67 66 65 62 59 57 54 57 62 63 65 66 65 65 66 66 66
19 21 13 10 14 11 9 10 9 10 12 15 16 15 12 12 14 19 26 26 27 33 28 22 25 22 19 20 14 11 13 13 11 10 10 12 12 12 13 14 14 12 12 12 12 13 15 19 24 26 26 29 31 35 44 56 63 67 66 64 64 60 60 64 61 59 61 63 66 67 65 65 64 63 62 60 62 65 65 66 65 64 64 65 67 67
19 25 19 11 12 11 8 12 14 12 10 12 14 12 13 19 20 20 27 32 34 36 31 26 24 20 18 17 15 14 13 13 13 12 11 11 12 13 12 13 14 13 14 13 12 14 15 19 21 22 23 22 26 39 52 61 66 68 67 64 61 58 58 62 60 58 60 61 63 65 65 66 66 64 63 63 65 65 65 65 64 62 63 65 66 67
20 29 27 15 11 12 12 16 20 17 12 12 13 13 14 19 20 20 22 26 32 37 34 30 25 19 16 14 13 15 14 13 13 13 13 12 11 13 13 13 14 14 15 14 13 14 15 17 17 18 20 19 29 49 59 63 66 65 64 62 59 56 57 60 59 58 60 60 60 63 65 66 66 63 63 65 66 66 65 65 63 62 64 65 66 66
19 28 32 22 13 14 16 17 18 16 15 16 18 20 20 20 20 21 22 21 24 32 34 33 30 20 14 13 12 14 14 14 13 13 14 14 13 13 13 14 15 15 16 15 14 14 15 16 14 17 18 16 32 54 59 59 61 59 60 59 56 55 58 60 60 58 59 59 59 63 64 64 64 63 63 64 65 66 65 64 64 63 63 64 64 63
21 25 33 32 24 21 18 14 13 13 14 16 18 19 21 23 24 26 29 25 22 29 32 33 34 24 14 14 13 12 13 13 12 12 12 12 13 14 13 15 16 15 16 17 16 15 15 15 15 16 16 20 34 48 51 54 55 53 57 57 54 56 57 58 59 58 58 58 59 62 62 63 65 64 64 65 67 67 65 64 64 65 65 64 62 61
32 30 34 36 29 22 17 12 12 13 12 14 17 18 19 23 25 28 34 29 24 28 29 31 38 30 17 15 15 14 15 13 13 14 13 12 13 14 14 14 16 16 15 16 16 16 15 15 15 15 18 26 35 39 43 50 50 50 54 54 52 55 55 55 58 57 55 57 60 62 63 64 65 64 65 67 67 66 64 64 65 65 65 63 60 58
37 32 31 31 22 16 14 11 11 11 11 14 16 16 18 21 23 25 28 28 31 35 32 36 44 34 19 16 16 17 18 17 17 16 15 15 15 15 15 15 16 17 16 16 16 17 17 16 14 15 21 27 31 34 42 46 43 46 52 50 48 53 54 54 55 54 53 56 60 62 63 64 62 61 64 65 64 63 63 65 65 65 64 63 60 57
36 33 31 31 28 25 21 15 13 11 13 16 17 19 23 25 27 30 30 34 44 43 35 41 45 32 20 19 18 20 21 21 20 17 17 20 18 16 16 16 17 16 16 17 17 17 17 17 16 17 22 24 23 29 39 43 39 42 49 48 46 51 54 52 52 51 50 53 58 62 63 62 60 60 63 64 63 63 64 64 64 64 63 61 59 58
33 34 31 33 37 36 29 21 17 16 18 20 21 24 27 27 29 35 38 43 50 46 38 43 44 32 24 21 21 23 23 21 21 19 20 23 24 22 16 15 17 17 16 17 17 19 18 17 19 20 20 18 17 23 33 38 36 39 46 49 48 51 53 51 50 50 48 49 54 59 60 59 58 59 62 62 62 62 63 62 61 60 60 58 58 58
31 33 31 32 34 31 26 21 18 19 23 24 22 22 23 23 25 31 37 40 41 41 40 40 38 34 31 26 24 26 24 21 22 22 21 24 33 38 31 22 17 15 17 19 17 17 19 21 23 21 17 18 19 21 28 32 34 37 45 50 50 50 51 51 50 49 47 47 51 54 54 54 56 58 60 60 59 59 59 58 57 57 57 56 56 55
33 34 32 34 32 26 23 21 19 20 23 22 21 21 21 21 23 28 35 34 31 36 39 34 32 37 36 28 24 25 23 21 20 19 19 22 31 41 43 39 31 19 15 17 19 19 19 22 25 21 19 23 25 24 26 29 30 35 43 48 47 47 51 53 51 49 48 48 50 50 48 50 54 56 57 57 56 57 57 55 55 56 56 55 55 54
34 36 34 32 30 25 22 22 21 19 19 19 20 22 22 23 26 31 35 32 31 37 38 33 35 40 36 29 25 23 21 21 18 17 18 19 21 28 34 39 45 42 26 15 17 21 20 21 24 25 25 28 28 26 26 27 28 33 41 43 43 46 51 54 52 50 48 48 49 48 47 50 54 54 54 54 54 54 54 53 54 55 55 54 53 53
30 33 32 30 29 27 23 21 20 18 19 19 19 20 21 22 24 27 29 28 29 35 34 33 41 43 35 28 24 20 20 21 19 17 17 16 15 21 25 27 37 50 45 30 20 18 20 22 21 24 31 32 28 26 25 25 26 32 38 39 41 46 50 53 51 48 45 44 45 47 48 50 52 52 52 52 53 53 53 53 53 53 53 53 52 53
28 30 29 29 32 32 26 22 20 19 20 20 19 19 19 22 25 27 28 30 32 36 34 36 46 46 34 26 22 21 21 20 20 20 19 20 17 17 24 24 24 33 43 44 33 18 18 22 20 24 33 32 26 25 25 24 25 29 34 37 40 44 46 48 46 43 41 40 41 45 47 47 47 47 48 49 50 51 51 50 51 51 51 51 52 55
28 30 28 27 34 34 26 22 22 21 22 25 27 27 25 28 31 31 32 34 37 43 44 44 46 40 30 24 22 21 20 18 20 19 18 21 19 16 21 24 22 23 28 36 36 24 18 21 23 27 32 29 25 24 25 25 25 27 32 35 38 40 40 41 40 39 39 39 40 43 44 43 43 44 45 46 47 48 49 49 49 49 48 48 52 57
27 29 28 29 34 33 24 21 22 25 31 32 30 29 29 31 34 34 35 35 35 40 44 43 38 30 25 24 23 23 22 19 20 18 18 23 23 20 19 18 21 25 20 25 38 34 22 22 25 27 27 27 25 24 24 25 24 26 31 34 35 35 34 36 37 37 38 39 40 40 40 40 41 42 43 44 46 47 48 48 48 47 46 48 54 60
30 31 31 30 33 34 28 24 28 37 41 33 22 20 23 26 28 31 35 35 34 34 34 33 30 26 25 26 24 24 22 20 20 19 20 27 31 31 26 17 20 24 19 28 44 37 22 21 24 24 25 26 25 23 23 25 25 26 31 33 32 31 31 33 35 36 37 38 38 37 37 38 39 41 42 43 45 47 47 46 47 47 47 50 57 62
33 34 33 31 32 33 28 28 40 48 41 27 19 18 19 20 23 29 33 31 29 29 29 28 27 25 24 24 25 28 28 27 27 26 24 24 29 37 38 27 21 27 35 44 45 30 20 23 25 27 30 29 27 26 26 26 27 28 32 33 31 30 31 32 33 35 37 39 38 36 36 37 39 40 42 43 45 45 44 45 45 45 48 55 61 65
30 32 32 30 32 33 30 33 43 42 28 21 22 20 17 20 27 33 37 32 26 26 28 27 26 26 27 29 32 38 39 36 33 33 32 27 24 33 49 44 28 27 42 48 36 23 23 27 28 33 35 32 31 31 28 27 29 31 32 32 30 30 32 31 32 34 36 38 38 36 35 36 38 40 41 42 44 42 42 44 44 46 53 60 64 66
23 27 28 29 30 32 34 33 32 32 30 28 29 27 26 33 39 44 49 43 31 25 26 27 31 34 38 42 42 42 44 46 44 38 33 30 23 27 43 48 34 26 32 33 25 24 29 31 33 39 39 36 35 32 29 29 32 33 32 31 30 30 31 32 32 32 33 36 36 33 34 36 38 40 42 42 42 40 41 43 43 48 58 64 65 66
18 22 26 31 31 29 34 35 36 43 42 30 31 40 43 46 48 51 55 47 33 29 35 45 52 52 50 51 49 45 47 55 55 41 30 31 34 33 37 44 44 37 31 26 27 34 37 36 38 41 40 38 36 32 30 31 33 33 31 29 29 30 30 31 32 32 32 33 32 31 33 35 37 40 42 41 41 40 40 42 45 51 61 67 66 66
18 19 21 29 31 32 41 45 44 49 41 27 32 45 49 53 55 54 51 44 38 41 49 56 63 62 59 58 55 51 54 59 55 44 39 45 54 55 52 53 52 41 31 31 36 38 39 40 39 38 38 38 36 33 30 31 33 32 30 29 29 29 29 30 32 32 31 31 30 30 31 35 39 41 43 44 43 41 41 43 46 53 62 66 66 66
20 21 22 29 33 36 45 48 42 38 31 25 31 38 42 52 62 62 54 43 40 46 47 47 53 56 56 58 57 55 56 57 54 50 50 56 66 67 57 47 43 37 34 37 37 34 39 44 39 34 35 37 36 34 32 32 33 31 29 29 30 30 31 33 33 33 31 30 29 31 33 37 41 43 45 46 45 43 44 45 48 56 63 66 66 66
24 23 24 31 36 40 48 53 46 38 35 40 45 43 41 48 57 60 53 39 37 42 41 42 49 51 50 54 56 56 53 48 48 52 53 56 67 72 57 39 34 33 31 34 36 35 39 39 33 32 35 36 36 35 34 33 32 30 30 30 31 32 33 35 35 33 31 30 30 32 33 36 40 42 45 47 45 43 44 45 48 58 65 66 67 69
28 29 29 32 36 39 45 49 47 42 46 54 54 45 46 55 56 50 43 37 37 40 38 40 46 47 49 52 53 54 52 46 47 56 58 56 62 71 69 58 51 44 38 41 44 39 33 32 33 35 36 36 36 36 35 33 31 30 31 31 33 35 36 35 34 31 30 30 32 33 35 38 41 44 47 48 45 42 41 43 51 61 66 66 68 71
29 36 39 37 34 36 43 49 50 48 49 54 50 42 47 58 51 39 36 35 35 37 40 42 44 45 50 54 53 53 52 49 52 64 72 69 66 69 73 73 70 62 52 47 43 34 29 31 34 36 37 35 35 35 34 33 31 31 32 33 35 36 36 34 31 29 29 31 33 35 38 40 41 42 43 45 44 42 41 44 53 63 66 67 69 71
27 35 40 37 32 35 43 43 38 35 35 40 42 37 38 42 36 33 39 42 43 46 49 49 48 48 52 56 54 53 54 54 60 74 84 83 78 78 77 69 61 55 46 37 32 30 30 30 30 34 38 35 33 35 34 32 32 31 32 34 35 35 35 33 31 31 33 34 34 34 34 34 35 37 39 40 41 41 40 44 55 64 65 67 71 72
29 30 37 37 32 34 39 37 30 25 23 25 26 25 29 33 34 39 49 53 54 56 59 63 62 55 53 55 56 57 56 57 66 81 88 84 79 79 73 54 39 37 35 30 30 31 30 28 29 36 39 34 31 34 34 31 32 32 32 34 35 34 32 32 32 34 34 32 31 30 29 30 32 33 35 36 38 40 42 48 58 64 66 70 74 74
25 29 38 40 38 40 39 33 27 23 21 22 23 23 26 32 38 47 55 58 56 53 55 63 65 58 55 57 59 59 57 59 71 82 84 81 76 66 52 37 28 30 32 30 33 35 32 30 32 37 38 34 31 32 32 31 31 32 33 34 33 31 31 31 32 33 32 30 28 28 28 29 29 30 32 35 37 40 44 50 59 64 69 76 79 78
29 41 50 51 57 63 52 34 27 26 24 24 24 22 25 32 39 43 46 50 52 50 50 54 57 58 60 61 61 61 59 63 76 82 80 80 71 49 34 31 30 31 32 32 35 38 35 33 35 37 38 36 32 31 32 32 30 30 33 33 31 30 31 30 29 30 29 29 28 27 27 26 27 30 31 32 34 39 44 51 60 67 74 80 83 83
36 51 57 52 57 63 53 40 37 35 28 23 22 24 33 43 47 48 49 47 45 45 48 51 57 64 66 63 63 66 65 68 77 82 81 76 60 38 28 30 30 31 34 36 37 37 36 36 35 36 37 36 33 32 33 32 30 31 32 31 30 31 30 28 28 29 29 28 28 27 27 28 30 31 30 29 33 39 44 51 62 70 75 81 87 89
34 44 47 44 45 45 37 32 34 33 28 24 22 26 41 52 52 55 59 56 50 52 56 57 62 68 69 68 70 73 73 73 72 68 63 56 44 34 31 29 29 32 35 36 37 37 37 37 34 34 37 37 33 31 32 31 30 30 31 31 31 31 30 30 31 31 29 28 28 28 29 31 32 33 32 31 33 38 44 51 61 70 74 78 85 90
35 39 38 39 44 42 34 33 38 41 37 31 24 27 43 52 48 49 58 61 60 62 63 62 66 71 72 77 83 84 82 77 66 55 49 43 36 34 33 29 28 31 31 33 36 36 36 38 35 33 36 38 35 32 31 30 29 30 30 31 31 31 30 30 30 29 28 27 28 30 32 34 33 33 34 34 34 38 44 48 54 62 68 73 79 85
35 36 32 34 40 40 35 36 42 43 38 32 28 29 36 43 42 46 58 65 63 59 59 64 75 83 86 87 88 88 87 79 62 50 47 45 39 35 33 30 29 29 29 32 34 33 34 38 37 34 36 38 36 31 30 29 30 31 30 30 30 30 30 29 27 26 27 27 29 32 34 34 34 34 35 35 35 39 44 45 45 50 58 66 75 83
Wind_Speed
3 5 7 6 5 5 7 4 5 8 8 7 6 5 7 7 7 5 4 7 3 5 9 11 13 14 14 13 11 12 12 12 13 13 11 10 10 9 10 10 10 11 10 12 15 18 21 21 20 19 17 17 16 15 14 13 12 11 10 9 8 6 4 3 2 3 3 4 4 5 6 7 7 7 6 2 2 2 2 2 3 3 3 3 4 4
2 7 9 3 4 4 3 2 5 6 6 6 7 7 8 9 8 4 3 5 2 4 10 12 14 15 14 13 12 11 13 14 14 14 13 13 12 11 12 13 12 11 11 13 13 16 20 21 21 21 18 18 18 17 16 15 13 12 11 10 9 8 6 4 3 3 3 4 4 4 5 6 6 7 6 4 3 3 2 2 2 2 3 3 4 4
7 9 6 4 6 5 2 3 5 6 7 7 7 8 8 8 7 3 4 4 4 4 8 12 14 13 13 13 14 13 12 13 14 15 15 15 14 13 13 13 12 11 12 12 11 14 19 21 22 22 19 19 19 18 17 16 14 13 12 11 10 9 8 6 5 4 4 3 4 4 5 6 6 5 5 3 2 2 2 1 1 1 2 4 4 5
5 4 2 6 5 1 3 5 6 6 6 7 7 7 7 6 6 5 5 4 4 4 8 12 11 9 10 13 14 15 14 13 14 16 16 15 14 13 12 11 10 11 12 10 10 13 17 20 22 22 20 20 19 18 17 17 16 15 14 12 11 10 9 8 7 6 5 4 3 4 3 4 4 3 4 3 2 2 3 2 2 2 3 5 5 6
4 5 7 5 4 4 6 7 8 7 6 8 8 8 8 5 5 5 1 2 4 7 9 10 8 9 12 14 13 13 15 15 15 16 16 15 14 13 12 12 11 9 9 9 11 13 15 18 21 22 21 20 19 18 18 18 17 16 15 14 13 12 10 9 9 8 7 5 4 3 2 2 2 3 4 4 4 4 3 3 2 3 4 5 6 6
3 6 5 4 4 7 8 7 8 7 6 8 9 9 9 8 6 5 3 3 6 7 9 8 7 7 9 13 13 11 13 15 14 15 16 15 14 14 13 12 11 9 8 9 11 13 14 17 20 22 22 21 20 19 18 18 18 16 15 15 14 13 11 11 10 9 7 5 4 4 2 2 1 2 4 4 3 3 3 3 3 3 4 5 6 7
2 4 3 4 5 8 9 8 9 8 7 6 4 7 7 7 7 7 6 7 7 4 7 8 7 6 3 8 11 10 10 12 12 14 15 14 14 14 12 11 11 11 10 9 10 13 14 17 19 20 21 22 21 20 19 17 17 17 16 15 16 13 12 12 11 10 8 6 5 4 3 2 1 2 3 2 2 1 2 3 3 4 4 4 6 7
4 6 4 5 7 8 7 9 9 9 9 3 2 3 6 7 8 9 8 8 8 4 5 10 9 7 6 7 8 10 10 11 11 12 13 13 13 13 12 11 12 12 11 10 10 12 14 16 18 19 21 22 21 20 19 18 17 18 17 16 16 14 12 12 12 10 8 7 6 5 4 3 2 3 3 2 2 1 1 2 3 3 4 5 5 6
4 7 7 7 8 7 8 9 6 8 9 1 2 3 5 7 9 9 8 8 8 7 5 10 10 6 8 8 5 9 10 11 11 12 12 12 12 12 11 11 12 12 11 11 11 12 13 15 18 19 21 21 20 19 19 18 17 18 17 16 16 14 13 13 13 12 10 8 7 6 5 4 3 3 3 3 2 1 1 1 2 3 4 4 4 6
3 5 5 8 8 7 10 8 3 7 7 1 1 5 6 7 8 8 9 7 8 9 8 9 9 7 8 6 6 8 9 10 10 11 11 11 12 11 11 11 11 10 10 11 12 12 13 16 18 19 20 20 19 19 18 18 17 17 17 17 16 15 14 13 14 12 11 9 8 6 6 5 4 4 3 2 2 2 2 1 2 2 2 3 3 4
3 4 4 7 8 8 7 2 2 6 6 2 4 8 8 8 8 7 7 7 8 8 10 13 12 9 7 6 6 6 8 8 7 8 10 11 11 11 10 10 11 10 10 11 12 12 14 16 18 19 19 19 18 18 18 17 16 16 17 17 17 16 15 14 14 14 12 10 9 7 7 6 6 5 4 4 3 3 3 2 2 2 2 3 3 4
9 8 6 7 10 10 6 3 6 9 7 5 7 8 7 7 7 7 7 7 8 8 10 14 12 10 8 7 6 2 7 7 6 7 9 11 11 10 9 9 10 10 10 11 11 12 13 14 16 17 17 18 18 18 17 17 16 16 17 17 18 17 16 15 15 15 13 11 9 8 8 7 7 6 5 5 4 4 4 4 3 3 4 4 4 4
10 10 10 9 11 11 9 7 8 8 8 8 8 7 7 7 6 7 8 7 8 9 11 11 8 9 9 9 9 4 5 7 6 7 7 10 11 10 10 10 10 10 10 11 11 12 12 12 13 17 18 19 19 18 18 17 17 16 16 18 18 18 18 16 15 15 14 13 11 10 9 8 8 7 6 5 5 5 4 5 5 4 5 5 5 5
7 10 12 11 9 10 10 8 6 7 8 9 9 8 8 7 7 9 8 8 9 9 9 7 6 8 8 8 11 9 8 8 7 8 7 8 10 9 9 10 10 11 11 11 11 12 12 12 14 17 19 19 18 17 18 18 17 17 16 17 18 18 18 17 16 16 15 14 13 12 11 10 9 8 7 6 5 5 5 5 5 6 6 6 7 7
8 7 8 9 6 9 13 12 9 8 7 9 10 9 9 8 8 9 8 8 8 5 2 3 5 6 6 3 5 9 9 8 9 10 8 8 8 8 8 9 9 10 11 10 10 11 12 14 17 18 18 18 17 17 17 17 17 16 16 17 18 18 19 18 17 17 17 15 14 13 12 11 10 9 8 7 6 6 6 6 6 7 7 8 8 9
10 8 5 7 5 6 11 12 11 11 9 8 8 10 10 8 8 8 9 10 9 6 4 5 6 6 6 6 5 6 8 9 11 11 11 11 10 9 9 9 9 9 10 10 11 11 12 14 17 17 17 17 17 17 17 17 17 17 16 17 18 19 19 19 18 17 17 16 15 14 13 12 11 9 8 7 7 6 6 6 7 8 8 9 9 10
8 8 3 6 6 7 10 10 10 10 8 5 6 9 9 10 10 8 10 10 9 9 8 8 8 8 8 10 10 11 12 12 12 12 13 12 12 11 10 9 10 10 10 11 11 11 11 13 15 17 17 16 16 16 17 17 17 17 16 16 18 18 19 19 18 17 17 16 15 15 14 13 11 10 9 8 7 7 7 8 8 9 9 10 10 11
6 8 6 7 10 10 9 10 10 10 9 7 7 8 7 10 10 7 8 9 9 10 9 8 11 10 9 8 10 14 15 14 14 13 13 13 13 13 11 10 11 10 11 12 12 11 11 12 15 16 17 17 16 15 16 16 15 15 15 16 17 18 19 20 19 18 17 17 16 15 14 13 12 11 9 8 8 8 8 9 9 9 10 10 11 11
4 7 9 11 13 10 6 7 10 11 14 13 11 9 8 9 9 7 7 8 9 10 9 10 13 12 11 9 9 13 14 13 14 14 13 14 14 12 11 11 11 10 10 11 11 11 10 11 15 17 16 17 16 14 14 14 14 14 14 14 16 18 19 20 19 18 18 17 16 15 14 14 12 11 10 9 9 9 9 10 10 11 11 12 12 13
3 7 8 9 11 9 6 7 9 10 12 13 10 9 9 8 9 9 8 7 9 10 9 11 13 11 10 10 11 14 14 12 13 13 13 14 14 13 11 10 10 10 9 10 10 10 11 12 15 17 17 17 15 13 13 14 13 13 14 14 15 16 18 19 19 19 18 18 16 15 14 14 12 11 10 10 10 10 10 11 11 12 13 13 13 14
5 7 8 9 10 9 8 8 9 10 9 8 8 9 9 8 8 10 9 8 9 9 9 10 11 10 9 9 10 12 13 13 12 12 13 13 13 13 11 9 9 9 9 10 10 10 11 12 15 17 18 17 14 14 13 13 13 13 13 14 15 16 18 20 20 19 18 17 16 15 15 14 12 11 11 11 11 11 11 12 12 13 13 14 14 14
4 6 7 9 9 9 11 11 12 14 11 9 8 8 9 8 8 9 9 9 9 8 9 10 11 10 8 7 8 10 11 13 13 12 13 12 12 13 11 10 10 9 10 10 10 10 11 11 14 16 15 13 13 14 13 13 12 13 13 14 15 16 19 20 20 19 18 17 16 16 15 13 12 12 11 11 12 12 12 12 13 14 14 14 15 15
3 5 8 10 10 12 16 16 16 17 16 14 11 10 10 9 9 9 9 10 9 9 11 11 11 11 8 8 10 11 11 12 14 14 12 9 10 13 12 11 12 11 11 11 11 11 10 11 14 16 14 13 13 13 14 13 12 13 13 14 14 16 18 19 19 19 18 17 16 15 15 13 12 12 11 12 12 12 13 13 13 14 14 15 16 16
3 5 8 10 10 12 16 17 17 18 16 14 12 12 12 11 11 11 10 10 9 10 11 10 11 11 8 9 10 9 10 12 13 12 13 11 10 12 12 12 12 12 11 12 12 11 10 12 13 13 13 14 14 13 13 12 12 12 13 13 14 16 18 18 18 18 17 17 16 15 14 13 12 12 12 12 12 12 13 13 14 14 15 16 16 17
3 5 7 8 9 9 10 11 12 13 11 9 9 9 9 11 13 11 10 9 9 13 15 12 10 10 8 10 10 9 10 12 14 13 14 14 12 11 12 12 13 13 13 14 13 13 13 13 12 11 13 15 16 14 13 12 11 12 13 13 14 15 17 18 17 17 17 16 15 15 14 13 12 12 12 12 12 12 13 13 14 14 15 16 17 17
5 6 6 7 9 9 9 7 6 6 5 5 7 9 10 13 14 10 8 8 9 13 15 12 10 11 12 14 14 13 13 14 15 15 14 14 14 14 13 13 13 14 14 16 16 14 14 12 11 12 15 17 15 14 13 12 11 12 12 13 13 14 16 17 16 17 16 15 15 15 14 12 12 11 11 11 11 12 12 13 14 15 15 16 17 18
6 7 9 11 12 12 13 13 12 11 10 11 13 15 15 16 16 12 9 10 11 12 13 13 13 14 16 18 17 16 17 18 16 16 15 13 12 13 14 14 15 15 15 16 16 15 14 13 13 14 15 15 14 13 12 12 12 12 13 13 14 14 15 16 16 16 15 15 14 13 12 12 11 10 10 10 11 12 12 13 14 15 16 17 18 19
5 9 12 14 17 19 19 20 18 16 15 17 19 20 20 20 19 15 13 14 15 13 13 14 15 15 16 18 20 19 19 19 18 18 17 14 10 8 10 14 16 17 17 16 16 16 16 15 14 14 14 14 14 13 12 11 12 13 13 14 14 14 15 15 15 15 15 14 13 12 11 11 10 10 10 11 11 12 13 14 15 15 16 17 18 20
6 9 11 15 19 21 21 21 20 18 17 18 20 22 22 22 20 18 17 19 18 14 14 17 19 18 17 19 23 22 20 19 20 19 18 18 15 13 11 11 13 17 18 17 17 16 15 15 14 13 13 14 15 14 13 12 12 13 13 13 14 14 15 15 15 15 14 14 13 11 11 10 10 10 11 11 12 13 13 14 15 16 17 18 19 21
7 9 11 14 17 20 21 20 19 19 18 18 21 24 24 23 21 21 20 21 21 20 19 21 21 20 18 20 24 23 21 19 19 18 19 20 20 19 18 16 11 12 17 17 17 16 15 15 15 13 13 15 15 15 14 13 13 13 13 14 14 15 15 15 15 15 14 13 12 11 10 10 10 10 11 12 12 12 13 14 15 16 17 18 20 22
8 8 10 11 13 17 19 17 18 19 18 19 23 25 24 21 20 20 19 18 18 19 20 20 19 17 17 20 23 22 20 18 18 20 20 20 22 20 19 21 18 13 13 17 17 17 16 15 14 13 13 14 15 15 14 13 13 13 13 14 15 15 15 15 15 14 13 12 11 10 10 10 10 11 11 12 12 13 14 15 15 16 17 19 21 22
7 8 10 10 11 14 15 15 16 18 17 20 24 23 21 18 17 17 15 15 15 15 16 17 15 14 15 18 20 20 21 20 21 22 20 19 23 22 19 21 22 19 17 15 17 18 16 14 13 13 13 15 15 15 14 13 12 13 13 14 15 15 15 15 14 13 12 11 10 10 10 10 10 11 11 12 12 13 14 14 15 16 18 20 21 23
9 9 9 9 10 13 15 14 13 13 13 16 17 16 16 17 18 17 16 17 18 15 13 13 13 14 16 18 18 19 21 22 20 20 18 18 20 21 23 23 21 22 22 16 14 19 14 12 12 14 15 15 15 15 14 14 13 13 14 14 14 14 14 14 13 12 11 10 9 9 9 9 10 11 12 12 12 13 13 14 15 16 18 20 22 23
10 10 9 8 9 12 15 13 11 11 13 13 11 11 14 16 18 18 17 17 18 15 14 15 16 18 19 19 20 20 22 22 21 20 18 16 15 17 22 24 20 21 20 12 12 18 14 12 12 14 15 14 14 13 13 13 12 12 13 14 14 14 14 13 12 11 10 9 8 8 8 9 10 11 12 12 12 13 14 15 15 16 18 21 23 24
11 10 9 8 8 10 12 11 11 13 13 12 12 12 15 16 17 18 17 18 19 18 18 19 19 21 21 19 18 19 20 21 20 20 21 19 16 14 18 22 20 14 8 8 15 18 13 12 13 14 14 12 12 11 11 12 12 12 14 14 14 14 13 12 11 10 9 8 8 8 8 9 10 11 12 12 13 14 15 15 15 17 19 21 23 24
13 11 9 9 9 10 10 10 12 13 12 14 15 14 14 14 15 15 15 16 17 17 18 19 18 19 18 16 15 15 18 20 17 16 19 21 20 13 12 18 18 10 6 10 16 15 13 13 14 15 14 13 12 12 11 11 12 13 14 14 14 13 13 11 10 9 8 8 7 8 8 9 10 11 12 13 14 15 16 15 16 18 19 21 24 25
16 13 11 11 11 10 11 12 13 13 14 16 14 9 8 8 7 7 8 11 15 15 15 15 15 14 13 13 13 14 15 17 16 14 15 20 22 15 9 14 16 10 11 15 15 13 14 15 14 13 13 12 11 10 10 11 13 14 14 14 14 13 12 11 10 8 7 7 7 7 8 9 11 12 12 13 14 16 16 15 17 19 19 21 25 27
16 15 13 12 11 11 12 13 12 12 13 12 6 1 2 4 2 1 4 9 12 10 9 10 11 12 12 11 13 14 13 12 13 12 11 15 18 14 10 12 15 13 13 15 15 14 12 11 10 11 11 9 9 9 9 12 14 15 15 15 14 13 12 10 9 7 5 5 6 7 8 10 11 12 13 14 15 16 16 16 18 20 18 19 25 27
17 15 12 12 12 11 12 12 11 10 10 9 4 4 2 2 1 1 6 7 5 4 5 6 8 10 11 12 12 12 11 10 10 10 10 13 17 16 13 12 12 11 13 14 14 13 12 9 8 9 9 8 9 9 10 13 15 15 15 14 13 12 11 9 7 4 3 4 6 7 9 10 11 12 13 14 15 16 16 17 19 20 19 21 25 28
15 12 11 13 13 13 13 12 10 9 8 10 8 2 3 2 1 4 8 5 3 5 5 6 8 9 9 11 11 9 8 9 10 11 11 12 13 13 12 12 10 9 13 13 12 12 12 10 8 8 8 8 8 9 12 15 16 15 14 13 12 10 8 6 4 2 3 5 6 8 9 10 11 12 13 14 15 16 16 17 19 19 19 22 26 27
11 10 10 12 12 12 13 11 9 8 6 6 7 6 5 2 4 8 8 5 7 10 10 8 10 10 8 9 9 8 9 12 13 15 15 12 8 7 7 7 9 10 12 13 12 10 9 10 8 7 7 7 8 10 13 15 16 15 13 12 11 8 6 4 2 1 4 5 6 8 9 10 11 12 12 14 16 16 16 17 18 17 19 23 25 26
10 9 9 10 11 10 11 10 10 9 2 4 6 7 5 5 7 6 6 9 11 12 12 11 10 10 9 9 9 9 13 16 17 17 17 12 10 8 5 5 4 6 8 11 10 8 9 8 7 6 6 7 8 12 15 16 16 15 13 11 9 7 5 4 1 2 4 5 7 8 9 10 10 12 12 14 16 17 17 17 16 16 20 23 25 25
9 8 9 9 9 8 9 10 10 7 1 4 5 5 2 5 7 8 9 11 12 12 13 12 9 9 10 10 11 13 15 18 17 14 13 9 6 9 7 7 5 4 7 9 9 11 10 8 8 8 8 8 10 13 16 17 16 14 12 11 8 6 5 4 1 2 4 6 7 8 9 10 11 12 12 13 14 16 17 18 17 18 21 23 23 24
9 9 9 8 6 7 9 9 7 5 2 2 3 5 6 7 9 10 10 10 10 11 12 11 10 10 10 11 13 14 15 17 16 12 10 8 6 6 8 10 10 9 10 11 11 12 10 8 8 9 8 9 11 14 17 17 16 14 12 10 8 6 5 3 2 2 4 6 7 8 9 10 11 12 12 13 14 15 16 17 17 18 21 21 21 23
7 8 9 9 8 8 9 9 9 10 9 9 9 10 11 11 11 11 10 8 7 7 7 9 11 11 11 12 13 13 13 14 13 10 10 8 8 8 8 10 11 10 10 9 8 8 8 7 6 7 8 9 12 15 17 17 15 14 12 10 8 6 5 4 2 2 4 6 7 8 10 11 11 12 12 13 14 14 14 16 17 18 21 21 20 21
11 11 10 9 8 10 11 13 13 14 13 12 12 10 10 10 10 8 6 5 7 6 5 7 11 11 11 12 12 11 12 13 11 8 8 8 8 9 9 9 8 8 8 7 6 5 5 5 6 8 8 10 13 16 16 16 15 13 11 10 8 7 5 3 1 2 3 5 7 8 10 11 12 12 13 14 13 12 13 15 16 18 20 20 20 20
10 6 5 7 8 9 10 11 12 14 14 13 13 13 11 10 9 6 4 5 7 8 8 9 11 12 12 12 12 12 13 12 7 4 6 8 9 9 8 6 6 6 6 5 5 4 5 5 6 8 9 11 13 16 16 15 14 13 11 10 9 7 6 3 0 1 2 4 6 7 9 11 11 12 13 13 12 11 12 14 16 17 18 19 19 20
6 2 3 8 9 8 11 12 13 16 18 17 16 12 6 5 8 9 8 9 9 8 9 10 10 11 11 12 13 13 10 5 2 2 7 9 8 7 4 4 4 4 5 5 5 5 6 6 7 9 10 11 13 16 16 15 14 13 11 11 10 8 6 4 1 1 3 4 5 7 10 10 10 11 13 13 12 11 12 13 14 16 17 17 17 18
10 8 9 11 10 11 14 14 13 15 17 17 14 8 2 4 5 8 11 13 11 8 8 9 9 10 11 12 11 8 4 2 2 5 8 8 5 4 3 3 3 3 5 5 4 4 4 5 7 9 10 11 13 16 17 15 14 13 12 11 9 7 6 4 2 1 2 3 4 7 10 10 9 11 13 13 12 11 11 11 12 13 15 16 16 18
11 12 12 10 10 10 11 10 10 11 11 11 11 9 5 4 6 8 10 12 9 6 7 9 9 10 10 9 7 4 2 2 4 7 7 4 1 2 2 3 3 4 3 3 3 4 5 5 6 8 10 12 14 16 17 15 13 13 12 11 9 7 5 3 2 1 1 3 5 7 10 10 10 11 13 13 13 12 11 11 12 12 13 17 19 20
10 12 12 11 10 11 11 11 10 10 10 11 13 12 9 8 10 9 9 10 8 5 6 8 9 9 8 8 7 6 5 6 6 6 7 6 4 3 3 4 4 3 2 3 4 4 5 6 7 9 10 12 14 16 17 15 13 13 13 11 9 7 5 3 1 1 3 5 6 6 8 10 10 12 13 13 13 13 12 12 13 14 15 19 22 22
Wind_Direction
234 230 218 230 251 215 197 238 310 340 344 322 311 281 270 270 260 260 140 143 210 248 245 248 248 246 242 239 222 193 194 213 219 219 220 218 221 225 226 230 232 233 231 220 209 192 186 185 180 179 178 175 177 177 179 182 182 180 177 174 170 165 163 176 152 90 60 43 43 39 30 21 21 17 7 7 21 2 347 342 319 318 333 330 325 312
225 246 235 213 22 45 99 325 317 309 301 283 275 265 259 256 254 275 97 133 171 248 259 258 252 250 244 244 239 211 197 209 221 224 226 226 226 231 236 238 237 235 234 227 210 188 186 187 181 180 180 180 182 181 182 187 188 187 187 182 176 170 163 160 145 123 94 59 46 43 35 22 21 22 13 1 6 359 345 339 331 326 328 332 327 313
213 241 238 133 76 50 54 284 266 260 267 259 251 252 256 255 242 194 135 183 218 233 258 258 254 251 245 247 249 236 220 212 215 224 233 236 234 232 235 239 240 240 241 230 201 182 187 187 182 181 182 184 186 185 185 190 192 190 191 188 182 176 168 159 158 153 134 106 80 72 56 37 32 34 30 27 32 14 351 331 328 329 325 330 321 309
229 220 153 104 96 145 227 232 236 240 243 243 249 252 248 253 259 228 172 189 226 241 265 268 265 260 248 247 247 241 238 231 221 223 233 239 239 239 240 246 247 243 241 223 185 180 188 189 186 182 183 186 186 188 189 192 195 194 194 193 186 180 175 165 162 159 145 140 119 97 74 59 62 63 56 50 40 4 345 324 302 304 321 322 311 306
249 109 111 115 130 199 222 216 225 242 238 230 237 254 266 276 279 267 176 152 233 237 248 263 268 258 244 238 238 234 230 234 233 228 230 231 232 238 244 250 251 242 232 207 182 185 190 190 189 186 185 185 186 192 192 192 195 196 196 194 188 182 179 171 165 163 162 167 164 160 166 137 130 91 56 38 17 349 332 323 305 298 308 308 302 303
239 105 130 169 175 215 228 222 220 233 253 245 226 229 265 294 286 263 242 231 253 240 213 225 255 255 231 224 229 228 219 223 232 235 232 226 227 233 236 236 234 224 218 208 191 187 189 189 189 189 188 186 188 193 192 192 194 195 196 194 188 184 181 175 168 168 173 179 178 184 185 146 122 74 55 42 27 358 335 327 313 295 291 293 294 297
177 124 190 193 209 229 231 237 229 224 249 265 210 190 226 274 268 253 246 233 257 264 170 195 258 285 243 215 215 210 210 214 223 234 234 229 227 228 227 219 215 210 203 207 200 188 186 187 188 189 189 189 190 192 191 191 192 194 196 192 189 187 183 178 173 169 174 180 175 171 164 136 93 90 95 83 69 21 343 325 312 295 284 281 282 287
158 161 188 196 227 234 230 241 231 220 239 266 79 174 215 248 247 241 242 237 258 282 165 196 243 277 275 252 219 192 200 214 215 219 223 224 223 218 216 209 206 205 193 195 201 193 187 186 187 188 188 189 190 190 190 190 191 193 195 194 191 190 186 180 177 173 179 189 182 172 172 164 137 122 135 144 149 129 357 323 314 304 294 289 278 278
154 186 191 205 228 233 233 240 215 209 235 252 69 247 239 244 241 235 239 242 254 265 239 221 225 247 260 253 209 183 207 223 213 210 211 212 215 211 211 209 207 202 189 190 196 194 190 185 186 187 185 188 190 189 189 188 189 190 193 194 192 192 189 182 179 177 180 185 182 183 186 176 158 148 160 168 168 182 203 275 307 307 302 296 282 278
160 193 205 215 226 233 235 239 178 197 233 278 270 257 251 245 240 237 244 251 253 253 258 247 220 226 258 244 199 193 220 232 216 209 207 207 212 209 207 210 211 201 187 191 194 190 188 184 184 184 183 186 187 187 187 185 186 187 190 192 192 194 192 185 181 180 180 179 182 190 185 177 172 166 176 181 178 201 223 239 272 290 298 298 289 283
199 166 217 232 234 249 254 251 186 221 242 260 245 245 235 230 231 235 242 253 262 248 245 246 226 221 259 264 239 207 200 222 228 212 200 199 207 205 202 206 208 202 191 193 193 186 185 183 181 182 182 183 182 182 183 183 184 186 188 192 194 196 194 189 185 183 181 180 185 190 181 179 180 176 183 188 190 210 234 250 259 268 277 286 285 282
213 191 213 225 229 247 257 226 214 228 237 231 237 244 236 227 225 238 240 239 253 249 244 246 228 218 239 258 281 263 164 195 240 231 204 194 202 204 202 207 212 210 200 197 195 183 179 178 178 183 184 181 178 178 181 183 183 186 190 193 196 198 196 192 187 185 183 183 187 188 182 183 184 183 190 193 198 210 228 247 253 263 272 275 273 272
215 216 215 210 211 223 234 228 210 209 221 230 235 237 243 243 230 239 242 235 241 243 248 249 219 217 238 253 283 300 165 189 230 244 215 192 200 207 206 209 214 220 214 205 198 185 179 178 178 184 185 181 178 181 184 184 184 187 192 195 197 198 196 193 189 186 184 185 187 187 185 187 187 191 197 200 205 212 227 243 247 259 271 276 274 270
223 224 211 207 200 203 224 237 219 205 210 225 235 234 240 252 250 249 246 242 248 248 251 249 222 230 246 255 265 251 207 195 213 232 220 196 203 211 216 218 212 216 222 215 204 193 187 184 183 184 185 184 183 185 186 186 187 189 192 195 198 199 195 192 191 189 187 188 189 188 188 189 190 193 199 205 210 215 231 245 248 256 264 272 274 271
263 251 209 205 200 197 216 233 248 255 235 222 236 245 245 249 256 264 270 269 274 289 290 238 226 237 242 250 261 244 222 200 202 214 210 203 213 217 225 233 225 217 221 221 214 205 194 190 190 189 188 189 190 190 189 188 189 190 192 195 197 198 195 193 193 192 190 190 189 189 189 190 193 196 199 207 213 217 230 243 251 256 260 267 271 271
268 273 221 198 201 202 215 227 243 259 257 235 235 245 247 254 259 265 277 284 291 301 276 238 228 236 253 266 258 241 227 210 207 210 206 204 209 214 220 229 233 228 223 222 219 215 204 193 193 194 193 194 195 194 193 192 190 189 192 194 196 198 196 194 194 194 193 191 189 189 189 190 192 195 200 207 212 217 228 241 250 257 260 263 268 271
261 273 242 185 200 222 234 242 237 241 261 263 241 243 253 267 273 270 268 269 271 270 266 255 247 243 255 264 250 233 229 226 222 214 210 209 204 208 215 219 227 230 225 223 219 217 209 195 193 197 197 195 195 196 194 190 187 187 188 190 194 197 195 194 195 195 194 192 190 188 188 190 192 194 200 207 212 217 228 242 250 256 260 261 265 268
268 280 268 235 236 238 246 262 256 248 257 262 256 265 277 271 267 269 268 265 259 260 263 256 254 251 250 261 256 240 231 232 236 227 217 214 209 211 214 215 223 227 225 222 216 214 209 197 195 198 199 197 195 196 191 183 179 181 185 188 191 195 195 194 195 196 195 192 191 190 190 192 193 196 202 209 215 221 230 240 246 253 259 261 263 266
264 276 268 253 255 253 237 252 259 250 245 251 265 279 280 268 258 252 256 262 262 264 266 257 255 256 252 255 260 257 250 239 237 235 226 219 215 216 216 215 218 218 219 217 212 211 206 200 199 198 201 202 195 187 180 172 169 174 181 186 192 196 196 194 193 195 195 193 192 192 192 193 194 199 206 211 216 223 231 237 243 251 257 259 262 265
269 274 273 263 266 265 239 236 253 251 239 242 257 264 260 262 266 262 258 258 260 264 268 265 263 259 259 261 256 261 271 262 239 232 236 234 224 219 219 217 213 208 208 209 208 208 203 203 204 200 204 206 186 166 165 165 165 173 179 186 193 198 196 193 193 194 194 194 194 193 192 194 197 202 208 212 218 225 233 238 243 249 254 258 261 263
266 265 272 276 274 264 243 235 252 265 260 246 247 252 250 251 258 261 258 254 256 263 265 266 267 263 263 270 262 259 273 276 257 233 232 239 234 226 221 218 217 206 204 208 208 207 203 204 207 206 211 208 177 156 164 169 170 177 181 188 193 194 194 192 192 195 195 195 195 193 192 195 199 205 210 215 221 229 236 240 244 249 253 257 260 262
274 265 271 278 275 261 255 255 262 272 278 273 268 266 263 261 261 261 259 252 251 261 267 268 272 269 267 279 278 269 268 275 275 261 246 238 232 232 226 218 221 213 205 208 209 212 209 205 211 212 208 195 172 166 173 173 176 181 182 187 191 192 194 193 193 195 196 195 196 195 195 197 201 206 212 218 224 231 238 243 246 249 252 256 260 263
352 277 270 272 267 265 268 270 271 273 274 274 273 271 271 271 268 266 267 267 267 267 266 268 271 270 276 289 288 286 285 277 273 273 272 254 228 229 229 218 217 216 213 210 206 213 217 214 217 212 193 179 179 181 178 175 180 184 184 188 190 191 194 193 194 196 196 197 197 196 197 200 204 210 215 221 228 235 241 246 249 251 254 258 263 266
14 268 262 269 267 267 268 265 263 262 263 264 257 255 263 268 273 276 276 278 281 273 266 266 265 266 278 284 284 303 310 290 276 278 284 275 242 226 229 228 221 217 216 214 208 207 214 219 218 204 186 189 195 188 181 182 186 184 185 191 191 192 194 193 194 197 197 197 197 197 199 202 207 213 217 224 233 241 246 249 252 255 259 262 267 269
329 273 271 279 278 274 265 257 251 248 250 262 267 270 279 281 284 289 286 276 269 263 262 262 262 268 282 288 295 319 321 299 293 296 292 282 264 236 225 226 229 225 216 211 212 210 209 212 211 200 198 209 209 195 186 191 191 185 186 191 191 190 192 193 194 196 197 197 196 197 201 205 210 216 221 229 239 246 250 254 257 260 262 265 268 269
290 280 281 275 272 274 269 266 279 289 292 296 291 284 279 275 276 282 283 272 263 262 262 261 265 275 282 286 293 303 302 295 297 302 303 300 293 276 248 225 224 230 223 213 210 209 207 205 206 210 215 219 217 203 191 190 190 185 183 187 188 187 189 192 192 194 197 197 197 200 204 209 215 221 228 235 244 251 255 258 261 264 265 268 270 271
279 273 268 264 264 269 273 281 300 311 303 291 286 280 275 273 272 274 271 264 268 274 270 267 274 280 282 285 288 289 288 289 291 292 294 298 303 296 280 261 241 229 222 218 213 206 203 204 209 218 221 218 216 207 193 188 186 180 178 181 183 184 186 188 190 193 198 199 199 203 208 213 219 226 234 242 250 255 258 262 265 267 269 272 273 274
261 261 256 256 260 263 270 279 287 289 282 280 281 278 275 274 271 268 265 267 276 280 274 275 282 283 283 286 287 286 287 287 286 285 283 283 293 302 298 293 277 249 227 215 214 210 205 204 209 218 216 207 205 200 190 186 183 176 175 178 180 182 183 185 189 193 196 198 202 208 214 218 224 231 240 248 254 258 260 265 268 270 274 275 276 276
249 261 259 260 262 264 269 274 277 279 277 276 276 273 271 269 267 265 264 268 273 272 272 281 285 282 280 282 282 282 284 285 286 287 283 278 278 278 280 290 292 277 255 228 214 213 211 207 206 209 204 197 195 189 181 181 179 173 174 177 179 180 180 182 187 191 194 198 203 210 216 221 227 236 245 250 254 258 262 267 272 274 276 277 277 278
250 259 259 265 269 270 271 274 279 279 276 273 271 269 267 266 266 267 266 266 266 266 269 276 278 277 276 276 278 279 282 284 284 282 277 270 264 260 261 263 267 283 280 259 232 216 212 213 209 200 193 192 190 182 177 179 179 175 177 178 178 179 179 181 185 190 195 200 204 210 217 224 232 239 246 250 254 260 265 270 274 276 278 280 280 281
252 258 258 266 273 271 270 273 275 273 272 272 268 264 264 267 268 267 266 265 265 266 268 269 271 274 271 271 274 279 281 280 277 274 270 268 264 255 250 253 249 250 268 270 254 230 213 213 210 193 186 189 187 181 178 180 181 180 180 179 178 179 179 181 186 191 196 202 207 212 219 228 238 244 248 252 257 263 268 272 276 278 281 284 284 284
253 264 267 267 268 268 267 267 267 270 272 270 264 261 263 266 264 263 262 262 261 263 267 266 265 265 267 270 273 276 277 275 273 273 268 264 264 256 246 247 245 240 241 248 256 247 223 205 198 187 185 186 182 179 177 178 183 184 181 180 179 180 181 182 186 191 196 205 211 217 226 237 246 250 253 258 261 266 272 275 278 281 284 286 288 288
255 262 265 263 264 269 272 272 275 281 276 264 259 258 257 255 256 259 260 259 257 257 261 263 262 263 269 274 275 275 277 276 274 275 275 271 268 261 253 247 242 241 238 230 248 252 225 190 189 188 184 181 179 181 181 182 188 188 183 182 181 181 182 181 186 193 199 207 216 226 237 245 252 256 258 262 266 271 275 276 279 283 287 290 291 291
253 256 258 258 260 268 273 275 276 269 258 258 265 264 258 259 261 260 258 257 256 255 256 258 262 267 269 271 274 275 276 276 276 278 278 278 279 275 266 256 245 243 239 222 234 242 216 184 187 182 176 178 179 180 181 181 187 187 182 182 181 181 182 183 190 198 203 212 223 236 246 250 256 261 263 266 269 273 274 276 279 285 290 292 292 292
250 249 252 254 256 265 271 268 257 249 250 264 275 269 266 270 269 266 264 264 262 263 265 267 268 271 272 277 284 287 286 289 291 289 286 281 277 278 275 265 249 237 238 227 224 221 198 175 174 166 167 174 168 166 172 176 182 183 181 181 180 180 184 190 195 202 207 217 230 243 251 254 258 263 266 268 271 273 274 277 282 288 294 295 293 292
249 249 251 253 252 258 261 252 249 256 267 275 275 274 276 275 273 272 270 269 271 274 276 276 277 280 288 300 308 308 306 305 301 294 291 284 272 266 278 272 251 208 189 224 216 196 173 167 166 162 167 170 163 168 179 180 182 182 180 181 180 182 188 195 201 207 211 219 234 248 256 261 264 267 270 270 273 275 277 281 286 293 298 297 294 293
245 246 249 251 249 252 255 254 259 269 274 271 269 277 287 283 287 299 290 277 278 280 280 282 286 294 308 319 318 317 316 309 297 281 276 276 270 258 258 273 262 225 203 207 192 166 161 166 162 160 163 164 169 182 188 184 183 182 180 181 183 186 190 195 204 215 217 222 241 256 263 267 269 271 272 273 276 278 280 286 292 296 301 299 296 296
242 242 244 249 249 252 257 259 264 265 265 269 268 77 356 318 340 8 300 285 284 289 301 309 306 308 319 321 316 318 317 304 292 283 280 288 286 269 251 263 260 232 201 182 159 145 153 159 156 157 160 166 177 189 192 187 182 180 181 183 187 191 193 198 206 217 223 234 257 270 273 275 274 273 274 277 280 282 286 293 296 298 303 303 299 298
247 244 244 247 249 252 253 257 260 255 259 278 275 131 126 300 316 270 275 282 309 342 343 328 312 306 312 315 313 314 309 294 290 298 314 325 313 286 256 250 241 202 163 147 144 147 152 157 159 158 160 170 182 192 195 186 180 181 183 185 190 194 198 205 208 215 239 264 278 282 282 281 278 275 277 279 282 287 292 297 299 300 304 303 300 300
251 247 245 247 249 251 251 255 260 258 269 287 284 216 160 190 235 276 268 271 8 351 321 317 317 313 313 314 310 303 295 294 299 306 310 313 308 284 243 217 199 161 142 147 157 155 152 161 172 172 171 179 188 194 191 182 179 183 184 185 190 195 199 203 200 220 279 286 286 283 281 279 277 277 279 283 288 292 296 298 301 306 309 305 302 302
258 254 249 249 252 253 254 257 261 265 282 315 325 346 1 322 256 259 275 320 350 327 319 327 325 321 319 314 308 299 296 298 302 306 300 282 264 273 261 213 179 167 160 153 150 153 165 178 186 186 181 185 191 190 184 181 181 183 183 184 188 191 188 178 175 249 285 287 283 282 281 281 283 285 287 290 294 295 296 299 304 311 313 308 304 302
265 263 257 253 251 252 257 262 267 271 293 43 5 345 332 287 268 268 303 325 319 309 313 318 317 320 323 316 308 301 300 299 297 304 305 276 208 193 250 266 218 185 147 117 124 168 193 184 174 179 183 184 188 187 183 181 181 181 182 181 179 178 168 152 169 262 278 283 281 284 287 286 288 291 290 291 296 299 300 304 313 317 312 307 305 303
270 266 259 253 249 252 255 256 264 276 327 72 359 334 277 252 281 298 304 304 303 307 311 310 312 322 322 315 308 302 301 301 298 306 315 295 209 182 203 217 206 176 139 133 165 194 198 183 175 182 187 184 187 187 182 180 181 180 177 174 170 164 151 144 198 269 282 284 283 286 288 288 292 294 293 295 299 302 303 307 315 317 310 307 306 305
263 255 260 263 256 256 256 254 267 294 291 204 265 287 268 262 281 294 295 299 307 314 314 309 312 320 317 311 306 303 302 299 298 310 322 301 261 228 211 192 175 170 175 183 187 181 182 192 187 176 177 184 188 185 180 179 180 177 172 169 167 165 158 156 193 265 281 283 287 294 295 298 301 299 300 304 304 304 307 311 314 313 309 308 306 304
259 259 271 272 262 262 267 274 289 300 295 282 279 288 296 298 297 299 306 311 308 310 316 307 303 310 316 309 303 303 302 297 298 319 333 308 271 250 225 194 175 171 176 181 174 164 176 195 184 170 175 184 186 181 178 179 177 170 170 170 166 166 168 162 181 257 284 295 306 313 310 308 308 306 308 310 307 308 314 315 314 314 312 310 305 302
274 279 280 278 283 282 267 260 269 278 281 283 285 287 288 283 275 276 294 310 305 305 308 297 299 312 317 307 302 302 298 294 299 319 329 307 268 240 220 194 174 166 168 169 161 161 183 190 180 181 182 181 183 179 175 177 176 169 168 169 163 164 166 152 184 255 294 321 326 326 321 317 316 316 315 310 307 313 319 316 314 317 316 310 304 302
276 292 292 278 286 287 270 265 280 289 290 290 286 279 274 271 272 280 299 307 305 308 313 311 314 321 316 302 299 298 294 296 311 319 304 295 274 245 219 189 165 158 159 154 142 154 190 192 184 188 183 177 180 177 170 175 180 173 165 161 158 160 156 135 154 278 340 347 338 336 333 328 324 320 316 313 313 317 319 317 317 320 319 313 306 303
286 335 294 266 262 261 265 274 285 289 287 284 279 279 296 330 332 329 318 304 300 307 317 325 331 329 317 304 301 299 292 297 346 274 260 270 276 266 236 192 168 153 142 134 135 163 190 190 185 186 180 174 176 173 168 170 174 168 161 158 157 156 144 126 107 15 17 3 351 349 343 334 329 326 324 323 322 319 317 318 318 318 318 315 307 301
282 276 266 266 266 260 261 265 268 274 278 274 271 277 20 44 336 315 307 303 308 324 333 337 346 341 323 308 307 307 285 231 262 267 254 244 244 261 253 207 182 166 148 141 146 160 174 188 192 185 174 173 178 173 166 168 173 169 162 159 159 153 140 135 144 99 26 2 356 359 349 335 330 336 335 329 323 320 320 323 323 317 315 314 309 304
274 270 266 268 270 269 273 282 286 286 286 284 285 301 354 8 319 309 306 301 310 354 354 336 341 342 328 317 320 331 323 284 297 307 309 297 230 223 249 237 211 196 175 159 165 169 165 177 193 184 170 170 176 173 167 170 176 172 163 160 160 153 145 156 188 191 1 345 348 357 349 334 330 338 337 331 328 324 319 324 330 329 325 324 320 316
264 267 269 272 274 277 283 286 284 283 286 290 295 306 326 329 311 303 299 296 308 356 1 339 340 342 331 323 322 319 317 312 305 315 331 330 318 303 296 288 277 256 223 210 206 193 172 169 182 186 175 169 172 172 170 168 167 162 160 164 164 157 157 178 224 335 348 345 346 344 331 325 330 337 335 332 331 326 319 323 331 334 335 335 330 326